Concordia, KS

12:41 AM CST on November 20, 2019 (GMT -0600)
Blosser Municipal

Weather History for KCNK - September, 2019

Change the Weather History Date:

Monday, September 2, 2019

  Actual Average Record
Temperature  
Mean Temperature 79 °F 74 °F  
Max Temperature 90 °F 85 °F 109 °F (2000)
Min Temperature 67 °F 62 °F 45 °F (1893)
Degree Days  
Heating Degree Days 0 0  
Month to date heating degree days 0 0  
Since 1 July heating degree days 0 3  
Cooling Degree Days 14 9  
Month to date cooling degree days 22 18  
Year to date cooling degree days 1299 1184  
Growing Degree Days 28 (Base 50)    
Moisture  
Dew Point 72 °F    
Average Humidity 80    
Maximum Humidity 100    
Minimum Humidity 59    
Precipitation  
Precipitation 0.00 in 0.10 in 1.62 in (1942)
Month to date precipitation 0.00 0.20  
Year to date precipitation 28.84 21.30  
Snow  
Snow 0.00 in 0.00 in 0.00 in ()
Month to date snowfall 0.0 0.0  
Year to date snowfall 32.3 13.7  
Since 1 July snowfall 0.0 0.0  
Snow Depth 0.00 in    
Sea Level Pressure  
Sea Level Pressure 29.96 in    
Wind  
Wind Speed 13 mph (SSE)    
Max Wind Speed 24 mph    
Max Gust Speed 38 mph    
Visibility 10 miles    
Events      
T = Trace of Precipitation, MM = Missing Value Source: NWS Daily Summary

Daily Weather History Graph

Daily Weather History Graph

Search for Another Location

Airport or City:

Astronomy

Sep. 02, 2019 Rise Set
Actual Time 6:59 AM CDT 8:00 PM CDT
Civil Twilight 6:32 AM CDT 8:27 PM CDT
Nautical Twilight 5:59 AM CDT 9:00 PM CDT
Astronomical Twilight 5:25 AM CDT 9:34 PM CDT
Moon 10:42 AM CDT (9/2) 10:23 PM CDT (9/2)
Length of Visible Light 13h 55m
Length of Day
13h 00m
Waxing Crescent, 15% of the Moon is Illuminated
Sep 2
Waxing Crescent
Sep 5
First Quarter
Sep 13
Full
Sep 21
Last Quarter
Sep 28
New

Hourly Weather History & Observations

Time (CDT) Temp. Heat Index Dew Point Humidity Pressure Visibility Wind Dir Wind Speed Gust Speed Precip Events Conditions
12:55 AM 70.0 °F - 68.0 °F 93% 30.04 in 10.0 mi SSE 8.1 mph - N/A   Clear
1:55 AM 70.0 °F - 66.9 °F 90% 30.05 in 10.0 mi ESE 5.8 mph - N/A   Clear
2:55 AM 69.1 °F - 66.9 °F 93% 30.04 in 10.0 mi SE 5.8 mph - N/A   Clear
3:55 AM 68.0 °F - 66.0 °F 93% 30.04 in 10.0 mi SE 4.6 mph - N/A   Clear
4:55 AM 66.9 °F - 66.0 °F 97% 30.04 in 9.0 mi ESE 3.5 mph - N/A   Clear
5:55 AM 71.1 °F - 68.0 °F 90% 30.04 in 10.0 mi SSE 6.9 mph - N/A   Clear
6:55 AM 71.1 °F - 69.1 °F 93% 30.04 in 10.0 mi SSE 11.5 mph - N/A   Clear
7:55 AM 72.0 °F - 69.1 °F 91% 30.04 in 10.0 mi SSE 10.4 mph - N/A   Clear
8:55 AM 75.0 °F - 71.1 °F 87% 30.03 in 10.0 mi SSE 11.5 mph - N/A   Clear
9:55 AM 79.0 °F - 72.0 °F 79% 30.02 in 10.0 mi SSE 12.7 mph - N/A   Clear
10:55 AM 82.0 °F 87.4 °F 73.0 °F 74% 30.02 in 10.0 mi SSE 11.5 mph 18.4 mph N/A   Clear
11:55 AM 84.9 °F 92.1 °F 73.9 °F 69% 30.00 in 10.0 mi South 17.3 mph 24.2 mph N/A   Clear
12:55 PM 87.1 °F 96.3 °F 75.0 °F 67% 29.98 in 10.0 mi South 17.3 mph - N/A   Clear
1:55 PM 89.1 °F 99.1 °F 75.0 °F 63% 29.95 in 10.0 mi South 20.7 mph 27.6 mph N/A   Clear
2:55 PM 89.1 °F 99.1 °F 75.0 °F 63% 29.92 in 10.0 mi South 20.7 mph - N/A   Clear
3:55 PM 90.0 °F 101.3 °F 75.9 °F 63% 29.91 in 10.0 mi South 17.3 mph - N/A   Clear
4:55 PM 90.0 °F 100.2 °F 75.0 °F 61% 29.89 in 10.0 mi South 18.4 mph 28.8 mph N/A   Clear
5:55 PM 89.1 °F 98.0 °F 73.9 °F 61% 29.88 in 10.0 mi South 17.3 mph 29.9 mph N/A   Clear
6:55 PM 87.1 °F 94.5 °F 73.0 °F 63% 29.87 in 10.0 mi South 15.0 mph - N/A   Clear
7:55 PM 84.0 °F 89.6 °F 72.0 °F 67% 29.87 in 10.0 mi South 13.8 mph - N/A   Clear
8:55 PM 82.0 °F 87.4 °F 73.0 °F 74% 29.87 in 10.0 mi South 12.7 mph - N/A   Clear
9:55 PM 81.0 °F 85.8 °F 73.0 °F 77% 29.87 in 10.0 mi South 16.1 mph - N/A   Clear
10:55 PM 81.0 °F 85.2 °F 72.0 °F 74% 29.87 in 10.0 mi South 15.0 mph 26.5 mph N/A   Clear
11:55 PM 79.0 °F - 72.0 °F 79% 29.86 in 10.0 mi South 15.0 mph 26.5 mph N/A   Clear